Tracking 28096 objects as of 29-Sep-2023
HD Live streaming from Space Station
objects crossing your sky now

STARLINK-30327

Track STARLINK-30327 now!
10-day predictions
STARLINK-30327 is classified as:


NORAD ID: 57707
Int'l Code: 2023-129K
Perigee: 475.4 km
Apogee: 477.8 km
Inclination: 43.0 °
Period: 94.0 minutes
Semi major axis: 6847 km
RCS: Unknown
Launch date: August 27, 2023
Source: United States (US)
Launch site: AIR FORCE EASTERN TEST RANGE (AFETR)
Your satellite tracking list
Your tracking list is empty




NASA's NSSDC Master Catalog

Two Line Element Set (TLE):
1 57707U 23129K   23271.91668981 -.02109169  00000-0 -73993-1 0  9998
2 57707  42.9999 290.8635 0001780 250.1587 125.4582 15.32130105  6090
Source of the keplerian elements: AFSPC